User: anonymous   Login
Location: Unspecified
(0.0000°N, 0.0000°E)
Time: 12:49:51
(UTC+00:00)
Language:

Landsat 7 - Orbit

View from above orbital plane
View from above orbital plane
View from above satellite
View from above satellite

Ground track
Ground track

The orbit data is extracted from the following two-line orbital elements,

1 25682U 99020A   15123.15786729  .00000104  00000-0  33135-4 0  9994
2 25682 098.2201 193.6612 0000889 094.4198 265.7118 14.57106349853584
Epoch (UTC): 03 May 2015 03:47:19
Eccentricity: 0.0000889
inclination: 98.2201°
perigee height: 702 km
apogee height: 703 km
right ascension of ascending node: 193.6612°
argument of perigee: 94.4198°
revolutions per day: 14.57106349
mean anomaly at epoch: 265.7118°
orbit number at epoch: 85358

The dashed part of the orbit path shows where the satellite is in the earth's shadow,  

DLR